[[{"header":{"parameterUnit":"m.s-1","parameterCategory":1,"la1":30.2991,"la2":30.254,"lo1":-89.0895,"lo2":-89.0444,"dy":0.0017,"dx":0.0017,"nx":28,"ny":28,"refTime":"2025-03-28T03:00:00:Z","depth":0,"parameterNumber":2,"parameterNumberName":"U-component_of_WINDS"},"data":[0,0,0,0,0,0,0,0,0,0,0,0,0,0,0,0,0,0,0,0,0,0,0,0,0,0,0,0,0,0,0,0,0,0,0,0,0,0,0,0,0,0,0,0,0,0,0,0,0,0,0,0,0,0,0,0,0,0,-5.0287,-5.0288,0,-5.0419,-5.042,-5.0422,-5.042,-5.0418,-5.0416,-5.0415,-5.055,-5.0555,-5.0561,0,0,0,0,0,0,0,0,0,0,0,0,0,-5.0034,-5.0039,-5.0287,-5.0288,-5.029,-5.0419,-5.0421,-5.0422,-5.042,-5.0418,-5.0416,-5.0414,-5.0549,-5.0555,-5.0561,0,0,0,0,0,0,0,0,0,0,0,0,0,-5.0153,-5.004,-5.0287,-5.0305,-5.0307,-5.0418,-5.0421,-5.0423,-5.0421,-5.0418,-5.0415,-5.0413,-5.0547,-5.0554,-5.0562,-5.0664,0,0,-5.0586,-5.0589,0,0,0,0,0,0,0,0,-5.0146,-5.0162,-5.03,-5.0303,-5.0307,-5.04,-5.0381,-5.0504,-5.0421,-5.0378,-5.0415,-5.0411,-5.0503,-5.0514,-5.0544,-5.067,-5.0676,-5.0587,-5.0592,-5.0595,-5.0597,0,0,0,0,0,0,0,-5.0138,-5.0156,-5.0339,-5.0302,-5.0306,-5.0306,-5.032,-5.0404,-5.0453,-5.0381,-5.0381,-5.0397,-5.0504,-5.0537,-5.0548,-5.0678,-5.0587,-5.0594,-5.0598,-5.0602,-5.0894,-5.0897,0,0,0,0,0,0,-5.0126,-5.0149,-5.0335,-5.0343,-5.0218,-5.0313,-5.0329,-5.0373,-5.0452,-5.0462,-5.0399,-5.0396,-5.0525,-5.0538,-5.0552,-5.0676,-5.0595,-5.0602,-5.0607,-5.0891,-5.0895,-5.0898,0,0,0,0,0,0,-5.012,-5.0142,-5.033,-5.0246,-5.027,-5.032,-5.037,-5.0377,-5.041,-5.0466,-5.0475,-5.0424,-5.0523,-5.0541,-5.0636,-5.0681,-5.0606,-5.0613,-5.0887,-5.0892,-5.0896,-5.0924,0,0,0,0,0,0,-5.0113,-5.014,-5.0179,-5.0247,-5.0275,-5.0411,-5.0373,-5.0381,-5.0423,-5.0421,-5.0491,-5.05,-5.0522,-5.0624,-5.0644,-5.069,-5.0619,-5.0883,-5.0889,-5.0895,-5.0919,-5.0929,-5.0937,0,0,0,0,0,-5.0104,-5.0182,-5.0181,-5.0203,-5.0324,-5.0413,-5.0429,-5.0452,-5.0427,-5.0466,-5.0503,-5.0498,-5.0673,-5.0634,-5.0656,-5.0705,-5.0881,-5.0888,-5.0894,-5.0915,-5.0927,-5.0937,0,0,0,0,0,0,-5.0117,-5.0191,-5.0191,-5.0293,-5.0347,-5.0413,-5.0463,-5.0464,-5.0526,-5.0521,-5.0549,-5.0565,-5.0659,-5.0692,-5.0647,-5.0808,-5.0774,-5.0785,-5.0782,-5.0794,-5.0803,-5.0792,-5.0626,0,0,0,0,0,-5.0132,-5.0198,-5.0259,-5.0344,-5.0371,-5.0412,-5.0452,-5.0466,-5.0522,-5.0545,-5.0588,-5.0644,-5.0711,-5.0755,-5.082,-5.0925,-5.094,-5.097,-5.0979,-5.0986,-5.0995,-5.1053,-5.1066,-5.092,-5.092,-5.092,0,0,-5.0164,-5.0212,-5.0252,-5.0348,-5.0391,-5.0458,-5.0431,-5.0504,-5.0554,-5.0556,-5.0648,-5.0682,-5.0746,-5.0846,-5.0892,-5.0876,-5.104,-5.0995,-5.1,-5.1005,-5.1061,-5.1075,-5.1087,-5.0925,-5.0924,-5.0923,0,0,-5.0254,-5.0299,-5.0373,-5.0417,-5.0483,-5.0511,-5.0529,-5.0595,-5.0617,-5.071,-5.0712,-5.0773,-5.0889,-5.0934,-5.0972,-5.1083,-5.108,-5.1103,-5.1149,-5.1205,-5.1216,-5.1227,-5.1264,-5.1278,-5.1113,-5.1113,-5.1113,0,-5.0285,-5.0386,-5.0411,-5.0484,-5.0526,-5.0532,-5.0607,-5.0649,-5.0733,-5.0762,-5.0744,-5.0889,-5.0933,-5.1043,-5.107,-5.1101,-5.1122,-5.1094,-5.1213,-5.1223,-5.1233,-5.1269,-5.1284,-5.1115,-5.1115,-5.1114,-5.1114,0,-5.042,-5.0491,-5.0543,-5.0623,-5.0672,-5.0746,-5.0782,-5.0828,-5.0839,-5.0868,-5.0962,-5.1015,-5.1091,-5.1119,-5.113,-5.1231,-5.1219,-5.1207,-5.1172,-5.1249,-5.1283,-5.1298,-5.1118,-5.1117,-5.1117,-5.1116,0,0,-5.052,-5.0615,-5.0633,-5.067,-5.0744,-5.0799,-5.0874,-5.0948,-5.0986,-5.1045,-5.1108,-5.1207,-5.1196,-5.1239,-5.1255,-5.1305,-5.1387,-5.1286,-5.1288,-5.1301,-5.1501,-5.1508,-5.1523,-5.1387,-5.139,-5.1392,-5.1495,0,-5.0618,-5.0749,-5.0775,-5.0889,-5.0955,-5.0962,-5.1027,-5.108,-5.111,-5.117,-5.1204,-5.1273,-5.1254,-5.128,-5.1329,-5.1366,-5.1427,-5.136,-5.1445,-5.1448,-5.1426,-5.1542,-5.1549,-5.1643,-5.1508,-5.1511,-5.1513,0,-5.0748,-5.0809,-5.093,-5.0995,-5.1024,-5.1082,-5.1151,-5.1209,-5.127,-5.1288,-5.1337,-5.1349,-5.1427,-5.1391,-5.1499,-5.1453,-5.149,-5.1514,-5.1518,-5.1525,-5.1483,-5.1549,-5.1674,-5.1687,-5.1534,-5.1533,-5.1531,0,-5.0806,-5.092,-5.1007,-5.1038,-5.1117,-5.1157,-5.1192,-5.125,-5.1293,-5.1355,-5.1383,-5.1453,-5.1491,-5.1546,-5.1576,-5.1547,-5.1682,-5.1648,-5.1698,-5.1698,-5.1724,-5.1721,-5.1854,-5.1752,-5.1752,-5.1751,-5.1751,0,-5.0911,-5.0984,-5.1034,-5.1087,-5.1169,-5.1199,-5.128,-5.1314,-5.1366,-5.1426,-5.1438,-5.1494,-5.1532,-5.1594,-5.1618,-5.1703,-5.1721,-5.1738,-5.1743,-5.1735,-5.1733,-5.1758,-5.1751,-5.1755,-5.1754,-5.1754,-5.1753,0,-5.0989,-5.1026,-5.112,-5.1188,-5.1206,-5.1264,-5.1322,-5.1374,-5.1405,-5.1481,-5.1501,-5.155,-5.1623,-5.1659,-5.1751,-5.1768,-5.1863,-5.1865,-5.1842,-5.1844,-5.1891,-5.1885,-5.2042,-5.2064,-5.195,-5.1951,-5.1952,0,-5.1052,-5.1108,-5.1182,-5.1223,-5.1258,-5.1324,-5.1368,-5.14,-5.1446,-5.1519,-5.1562,-5.1637,-5.1697,-5.1814,-5.1858,-5.1929,-5.1931,-5.1982,-5.1942,-5.1932,-5.193,-5.1925,-5.193,-5.1988,-5.1989,-5.199,-5.199,0,-5.1159,-5.1174,-5.1237,-5.1306,-5.1358,-5.1415,-5.147,-5.1503,-5.1544,-5.1595,-5.167,-5.1717,-5.1811,-5.1884,-5.1957,-5.1994,-5.1999,-5.2003,-5.2018,-5.2009,-5.1993,-5.2,-5.1859,-5.1998,-5.1998,-5.1997,-5.1997,-5.1996,-5.123,-5.128,-5.134,-5.1409,-5.1454,-5.1506,-5.1558,-5.1596,-5.1659,-5.1737,-5.1753,-5.1832,-5.1892,-5.1991,-5.203,-5.2093,-5.2082,-5.2104,-5.2109,-5.2114,-5.2115,-5.1985,-5.2107,-5.2107,-5.2107,-5.2107,-5.2107,0,-5.1336,-5.1375,-5.1439,-5.1515,-5.157,-5.1571,-5.1633,-5.1678,-5.1748,-5.1803,-5.1863,-5.1949,-5.2021,-5.2071,-5.2144,-5.2184,-5.2189,-5.2202,-5.2198,-5.2206,-5.2122,-5.2101,-5.2198,-5.2198,-5.2198,-5.2198,-5.2198,-5.2198,-5.1397,-5.1482,-5.1505,-5.1612,-5.1651,-5.1728,-5.1763,-5.1811,-5.1855,-5.1951,-5.201,-5.2042,-5.2096,-5.2173,-5.2238,-5.2252,-5.2277,-5.229,-5.2303,-5.2222,-5.2212,-5.2203,-5.2183,-5.2296,-5.2296,-5.2382,-5.2383,-5.2383]},{"header":{"parameterUnit":"m.s-1","parameterCategory":1,"la1":30.2991,"la2":30.254,"lo1":-89.0895,"lo2":-89.0444,"dy":0.0017,"dx":0.0017,"nx":28,"ny":28,"refTime":"2025-03-28T03:00:00:Z","depth":0,"parameterNumber":3,"parameterNumberName":"V-component_of_WINDS"},"data":[0,0,0,0,0,0,0,0,0,0,0,0,0,0,0,0,0,0,0,0,0,0,0,0,0,0,0,0,0,0,0,0,0,0,0,0,0,0,0,0,0,0,0,0,0,0,0,0,0,0,0,0,0,0,0,0,0,0,3.4933,3.4934,0,3.5019,3.502,3.502,3.503,3.5029,3.5028,3.5028,3.5112,3.5115,3.5118,0,0,0,0,0,0,0,0,0,0,0,0,0,3.4777,3.4779,3.4933,3.4934,3.4935,3.5018,3.502,3.5021,3.503,3.5029,3.5028,3.5027,3.5111,3.5115,3.5119,0,0,0,0,0,0,0,0,0,0,0,0,0,3.4851,3.478,3.4933,3.495,3.4952,3.5018,3.502,3.5021,3.5031,3.5029,3.5028,3.5027,3.511,3.5115,3.5119,3.5173,0,0,3.5133,3.5135,0,0,0,0,0,0,0,0,3.4847,3.4857,3.4946,3.4949,3.4952,3.5012,3.4996,3.5072,3.5031,3.5001,3.5028,3.5026,3.508,3.5087,3.5106,3.5177,3.5181,3.5134,3.5136,3.5138,3.514,0,0,0,0,0,0,0,3.4842,3.4854,3.4967,3.4948,3.4951,3.4953,3.4962,3.501,3.5046,3.5003,3.5004,3.5014,3.5081,3.5101,3.5108,3.5182,3.5134,3.5138,3.514,3.5142,3.5304,3.5305,0,0,0,0,0,0,3.4834,3.4849,3.4964,3.4969,3.4895,3.4957,3.4967,3.4994,3.5046,3.5053,3.5015,3.5014,3.5094,3.5102,3.5111,3.5179,3.5138,3.5143,3.5145,3.5302,3.5304,3.5306,0,0,0,0,0,0,3.4831,3.4844,3.4961,3.491,3.4925,3.4961,3.4991,3.4997,3.5017,3.5055,3.5061,3.5029,3.5093,3.5104,3.5158,3.5182,3.5145,3.5149,3.53,3.5303,3.5305,3.5314,0,0,0,0,0,0,3.4826,3.4843,3.4864,3.491,3.4927,3.5007,3.4993,3.4999,3.5025,3.5025,3.507,3.5076,3.5093,3.5151,3.5163,3.5188,3.5152,3.5298,3.5301,3.5304,3.5312,3.5317,3.5321,0,0,0,0,0,3.482,3.4862,3.4865,3.4878,3.4954,3.5008,3.5018,3.5038,3.5027,3.5048,3.5073,3.5075,3.5177,3.5157,3.517,3.5196,3.5297,3.5301,3.5304,3.531,3.5316,3.5321,0,0,0,0,0,0,3.4816,3.4868,3.4872,3.493,3.4965,3.501,3.5037,3.5043,3.5081,3.5079,3.5101,3.5111,3.5164,3.5185,3.5161,3.5252,3.5236,3.5242,3.5236,3.5242,3.5246,3.524,3.5156,0,0,0,0,0,3.4822,3.4862,3.4905,3.4952,3.4969,3.5,3.5024,3.5037,3.5073,3.5088,3.5117,3.5152,3.5192,3.5218,3.5257,3.5315,3.5326,3.534,3.5344,3.5348,3.5353,3.5387,3.5394,3.5317,3.5317,3.5317,0,0,3.4834,3.4867,3.4891,3.4952,3.498,3.5021,3.5012,3.5055,3.5086,3.5094,3.5148,3.517,3.5211,3.5267,3.5294,3.5287,3.5377,3.5352,3.5354,3.5358,3.5391,3.5399,3.5405,3.532,3.5319,3.5319,0,0,3.4877,3.4906,3.495,3.4979,3.5023,3.5044,3.5054,3.5099,3.5115,3.5169,3.5177,3.5213,3.5282,3.5311,3.5335,3.5392,3.5395,3.5404,3.5426,3.5459,3.5466,3.5471,3.5493,3.55,3.5409,3.5409,3.5409,0,3.4887,3.4949,3.4971,3.5015,3.5042,3.5052,3.5097,3.5124,3.5178,3.5196,3.5188,3.5276,3.5304,3.5368,3.5383,3.5401,3.5414,3.5399,3.5463,3.5469,3.5474,3.5495,3.5503,3.541,3.541,3.5409,3.5409,0,3.496,3.5003,3.5033,3.5087,3.5117,3.516,3.5189,3.5217,3.5227,3.5249,3.5304,3.5338,3.5386,3.5402,3.5411,3.5469,3.5463,3.5459,3.5443,3.5482,3.5502,3.5511,3.5411,3.5411,3.541,3.541,0,0,3.5002,3.5069,3.5079,3.5105,3.5155,3.5189,3.5234,3.5281,3.5306,3.5343,3.5381,3.544,3.5437,3.5464,3.5477,3.5506,3.5551,3.5498,3.55,3.5508,3.5619,3.5623,3.5631,3.5554,3.5555,3.5557,3.5616,0,3.5052,3.5133,3.5155,3.5223,3.5265,3.5276,3.5315,3.5351,3.5372,3.541,3.5434,3.5476,3.5468,3.5485,3.5514,3.554,3.5574,3.5536,3.559,3.5592,3.5581,3.5642,3.5646,3.57,3.5623,3.5625,3.5626,0,3.5122,3.5163,3.5236,3.5283,3.5301,3.5336,3.5383,3.5418,3.5459,3.5473,3.5504,3.5515,3.5562,3.5544,3.561,3.5584,3.5607,3.5624,3.5626,3.5633,3.5612,3.5651,3.5717,3.5726,3.5638,3.5637,3.5636,0,3.5147,3.522,3.5274,3.5296,3.5351,3.5376,3.54,3.5439,3.5467,3.5508,3.5526,3.5571,3.5596,3.563,3.5653,3.5637,3.5717,3.5701,3.5731,3.573,3.5748,3.5746,3.582,3.5761,3.5761,3.5761,3.576,0,3.5202,3.5247,3.5287,3.532,3.5371,3.5395,3.5445,3.5469,3.5505,3.5543,3.5555,3.559,3.5618,3.5657,3.5675,3.5728,3.5739,3.5752,3.5756,3.5751,3.575,3.5768,3.5765,3.5763,3.5762,3.5762,3.5761,0,3.524,3.5268,3.5328,3.5377,3.539,3.5426,3.5467,3.55,3.5523,3.5571,3.5584,3.5619,3.5667,3.5693,3.5751,3.5764,3.5823,3.5825,3.581,3.5812,3.5841,3.5839,3.5929,3.5943,3.5874,3.5875,3.5875,0,3.5273,3.5308,3.5362,3.5389,3.5414,3.5457,3.5487,3.5512,3.5542,3.5592,3.5619,3.5667,3.5707,3.5782,3.5813,3.5858,3.5862,3.5891,3.5869,3.5864,3.5864,3.5863,3.5867,3.5895,3.5895,3.5896,3.5896,0,3.5331,3.5344,3.5386,3.5434,3.5469,3.5507,3.5545,3.5567,3.5598,3.5631,3.5681,3.5712,3.5773,3.5822,3.587,3.5894,3.5901,3.5903,3.5913,3.5909,3.5899,3.5906,3.5822,3.5901,3.59,3.59,3.59,3.59,3.5368,3.5401,3.5444,3.5491,3.5523,3.5559,3.5593,3.5621,3.5663,3.5716,3.5728,3.578,3.5821,3.5887,3.5913,3.5954,3.5949,3.5962,3.5966,3.5969,3.5971,3.5892,3.5963,3.5963,3.5963,3.5963,3.5962,0,3.5428,3.5457,3.55,3.5554,3.5591,3.5596,3.5638,3.5669,3.5716,3.5754,3.5794,3.5851,3.5898,3.5933,3.5982,3.6008,3.6012,3.602,3.6019,3.6025,3.5973,3.596,3.6016,3.6016,3.6016,3.6016,3.6016,3.6016,3.5464,3.552,3.5538,3.561,3.5639,3.5691,3.5716,3.5749,3.578,3.5844,3.5884,3.5907,3.5944,3.5995,3.6039,3.6048,3.6066,3.6073,3.6083,3.6034,3.6028,3.6023,3.6011,3.6077,3.6077,3.6132,3.6133,3.6133]}]]